Regional Weather Roundup
Issued by NWS Midland/Odessa, TX

Skip options and go directly to product.
Home | Oldest Version | Next Version | Current Version | All | Text Only | Save Text | Print | Product List | Glossary On

Skip product version selection by date and time.   
262
ASUS44 KMAF 240102
RWRMAF
MIDLAND AREA WEATHER ROUNDUP
NATIONAL WEATHER SERVICE MIDLAND TX
800 PM CDT WED JUL 23 2014

...IN SOUTHWEST TEXAS AND SOUTHEAST NEW MEXICO...

CITY           SKY/WX    TMP DP  RH WIND       PRES   REMARKS
ALPINE         SUNNY     86  51  29 E14       30.24F
ANDREWS        FAIR      94  51  23 E10       30.12S
ARTESIA        SUNNY     93  46  20 E9        30.13S
BIG SPRING     CLEAR    100  51  19 NE15      30.10R
CARLSBAD       MOSUNNY   97  43  15 SE10      30.09F
DRYDEN           N/A     99  56  23 E10       30.02R
FORT STOCKTON  CLEAR     93  52  24 E13       30.09S
GUAD PASS      SUNNY     83  44  25 E23G29    30.27F
HOBBS          MOSUNNY   91  48  22 E13G22    30.16S
MARFA          MOSUNNY   84  50  30 E14       30.24S
MIDLAND AIRPK  PTCLDY    86  62  45 S9        30.10S
MIDLAND INTL   PTCLDY    92  60  34 NE28      30.10R
ODESSA         PTCLDY    94  51  23 E13       30.10S
PECOS          SUNNY     96  53  23 SE9       30.05S
PRESIDIO       FAIR      96  48  19 MISG      30.02S
SEMINOLE       MOSUNNY   94  50  22 E6        30.14S
SNYDER         CLEAR     95  60  30 E9        30.09S
WINK           MOSUNNY   98  50  19 SE13G23   30.05F
$$
...OTHER STATIONS IN TEXAS...

CITY           SKY/WX    TMP DP  RH WIND       PRES   REMARKS
ABILENE        CLEAR     94  62  34 E7        30.06R
AMARILLO       SUNNY     89  60  37 SE7       30.18F
AUSTIN         PTCLDY    92  68  45 NE13      29.97S
BROWNSVILLE    CLEAR     85  71  63 SE13      29.95R
CORPUS CHRISTI PTCLDY    87  72  60 SE15      29.94R
DALLAS FTW     CLOUDY    93  68  43 E9        30.02R
DEL RIO        CLEAR     97  62  31 SE12      29.94R
EL PASO        MOSUNNY   93  42  17 E15       30.12S
HOUSTON INT    PTCLDY    89  69  51 VRB3      29.96S
LUBBOCK        PTCLDY    90  57  32 E6        30.16S
SAN ANGELO     CLEAR     93  63  36 NE14      30.06R
SAN ANTONIO    PTCLDY    93  70  46 CALM      29.96S
WACO           MOCLDY    89  67  47 SE6       30.00S
WICHITA FALLS  NOT AVBL
$$
...OTHER LOCATIONS IN NEW MEXICO...

CITY           SKY/WX    TMP DP  RH WIND       PRES   REMARKS
ALAMAGORDO     MOSUNNY   93  46  20 E16G23    30.16S
ALBUQUERQUE    PTSUNNY   89  48  24 SE8       30.27S
CANNON AFB     SUNNY     88  55  32 S8        30.23S
CLOVIS         NOT AVBL
HOLLOMAN AFB   MOSUNNY   93  46  20 SE16      30.13S
ROSWELL        SUNNY     95  47  19 SE9       30.14F
RUIDOSO        MOSUNNY   77  41  27 MISG      30.43S
SANTA FE       PTSUNNY   77  54  44 SE7       30.37S
TRUTH OR CONSE LGT RAIN  87  52  29 N5        30.20F
TUCUMCARI      MOSUNNY   93  48  21 S13       30.18F
$$

USA.gov is the U.S. government's official web portal to all federal, state and local government web resources and services.